GW1435 Weather Reports


time (UTC)temp
F
wind
direction
speed
knots
gust
knots
rain 1hr
in
rain 24hr
in
rain mn
in
humidity
%
barometer
mb
20260510180058 70 360 4.3 9.6 0.00 0.00 0.00 51 1019.3
20260510175544 70 5 2.6 9.6 0.00 0.00 0.00 51 1019.2
20260510175044 70 78 1.7 6.1 0.00 0.00 0.00 55 1019.3
20260510174558 70 67 0.9 5.2 0.00 0.00 0.00 54 1019.2
20260510174046 70 0 0.9 7.0 0.00 0.00 0.00 55 1019.1
20260510173544 70 76 0.9 8.7 0.00 0.00 0.00 57 1019.0
20260510173105 69 0 2.6 8.7 0.00 0.00 0.00 55 1019.0
20260510172544 69 103 1.7 7.0 0.00 0.00 0.00 55 1019.1
20260510172044 69 94 0.9 7.8 0.00 0.00 0.00 60 1019.1
20260510171557 69 49 2.6 7.8 0.00 0.00 0.00 56 1018.9
20260510171047 69 352 0.9 7.8 0.00 0.00 0.00 56 1018.9
20260510170547 69 84 3.5 8.7 0.00 0.00 0.00 57 1019.0
20260510170106 69 47 1.7 8.7 0.00 0.00 0.00 57 1019.0
20260510165545 69 0 1.7 9.6 0.00 0.00 0.00 59 1018.9
20260510165044 69 46 2.6 9.6 0.00 0.00 0.00 59 1018.8
20260510164553 69 54 2.6 9.6 0.00 0.00 0.00 60 1018.9
20260510164043 69 90 1.7 8.7 0.00 0.00 0.00 61 1018.9
20260510163544 68 24 1.7 8.7 0.00 0.00 0.00 63 1018.8
20260510163051 68 19 1.7 9.6 0.00 0.00 0.00 64 1018.7
20260510162543 68 0 4.3 9.6 0.00 0.00 0.00 64 1018.7
20260510162044 68 33 3.5 9.6 0.00 0.00 0.00 63 1018.7
20260510161551 67 46 1.7 9.6 0.00 0.00 0.00 63 1018.8
20260510161044 68 59 2.6 9.6 0.00 0.00 0.00 64 1018.9
20260510160545 67 98 0.9 9.6 0.00 0.00 0.00 65 1018.9
20260510160052 67 49 4.3 8.7 0.00 0.00 0.00 64 1019.0
20260510155548 67 5 1.7 9.6 0.00 0.00 0.00 65 1018.9
20260510155044 67 344 1.7 9.6 0.00 0.00 0.00 66 1018.9
20260510154550 67 18 2.6 9.6 0.00 0.00 0.00 66 1018.8
20260510154043 67 57 4.3 9.6 0.00 0.00 0.00 67 1018.8
20260510153543 66 0 2.6 7.8 0.00 0.00 0.00 67 1018.8
20260510153053 66 0 0.9 8.7 0.00 0.00 0.00 70 1018.8
20260510152546 66 63 1.7 9.6 0.00 0.00 0.00 69 1018.8
20260510152045 65 0 3.5 9.6 0.00 0.00 0.00 68 1018.8
20260510151558 65 83 3.5 8.7 0.00 0.00 0.00 67 1018.8
20260510151045 65 58 1.7 11.3 0.00 0.00 0.00 69 1018.8
20260510150545 65 11 2.6 11.3 0.00 0.00 0.00 68 1018.7
20260510150055 65 80 3.5 9.6 0.00 0.00 0.00 68 1018.8
20260510145544 65 0 2.6 9.6 0.00 0.00 0.00 70 1018.7
20260510145044 65 32 3.5 9.6 0.00 0.00 0.00 70 1018.6
20260510144553 65 51 2.6 9.6 0.00 0.00 0.00 70 1018.5
20260510144045 65 15 3.5 8.7 0.00 0.00 0.00 71 1018.5
20260510143548 65 0 2.6 8.7 0.00 0.00 0.00 69 1018.6
20260510143052 65 0 1.7 8.7 0.00 0.00 0.00 70 1018.3
20260510142544 65 0 1.7 8.7 0.00 0.00 0.00 71 1018.2
20260510142048 65 36 2.6 8.7 0.00 0.00 0.00 70 1018.1
20260510141600 65 352 0.9 8.7 0.00 0.00 0.00 70 1018.1
20260510141045 64 30 2.6 8.7 0.00 0.00 0.00 71 1018.1
20260510140547 64 40 1.7 9.6 0.00 0.00 0.00 73 1018.0
20260510140055 64 49 1.7 10.4 0.00 0.00 0.00 73 1017.8
20260510135544 64 76 3.5 10.4 0.00 0.00 0.00 72 1017.7
20260510135044 63 32 1.7 8.7 0.00 0.00 0.00 74 1017.7
20260510134556 63 42 1.7 7.8 0.00 0.00 0.00 75 1017.6
20260510134047 63 49 0.9 8.7 0.00 0.00 0.00 76 1017.5
20260510133544 62 49 3.5 8.7 0.00 0.00 0.00 76 1017.6
20260510133111 62 35 0.0 8.7 0.00 0.00 0.00 79 1017.5
20260510132544 62 25 2.6 7.8 0.00 0.00 0.00 78 1017.4
20260510132044 62 53 2.6 7.8 0.00 0.00 0.00 78 1017.3
20260510131602 62 48 1.7 7.0 0.00 0.00 0.00 79 1017.3
20260510131044 62 25 1.7 7.0 0.00 0.00 0.00 78 1017.2
20260510130544 62 33 1.7 7.0 0.00 0.00 0.00 78 1017.3
20260510130057 61 30 0.0 7.0 0.00 0.00 0.00 78 1017.2
20260510125545 61 54 0.0 4.3 0.00 0.00 0.00 78 1017.2
20260510125044 61 0 0.0 4.3 0.00 0.00 0.00 78 1017.2
20260510124557 61 41 0.9 4.3 0.00 0.00 0.00 77 1017.2
20260510124045 61 0 0.9 2.6 0.00 0.00 0.00 77 1017.1
20260510123543 61 0 0.0 0.9 0.00 0.00 0.00 76 1016.9
20260510123101 61 0 0.0 0.0 0.00 0.00 0.00 75 1016.8
20260510122544 61 0 0.0 0.9 0.00 0.00 0.00 75 1016.8
20260510122045 61 0 0.0 0.9 0.00 0.00 0.00 74 1016.8
20260510121553 61 0 0.0 0.0 0.00 0.00 0.00 74 1016.8
20260510121045 61 0 0.0 0.0 0.00 0.00 0.00 73 1016.6
20260510120545 61 0 0.0 2.6 0.00 0.00 0.00 73 1016.6
20260510120050 61 0 0.0 2.6 0.00 0.00 0.00 72 1016.5
20260510115548 61 0 0.0 4.3 0.00 0.00 0.00 72 1016.4
20260510115044 61 0 0.0 4.3 0.00 0.00 0.00 71 1016.4
20260510114554 61 0 0.0 4.3 0.00 0.00 0.00 70 1016.3
20260510114044 61 0 0.0 4.3 0.00 0.00 0.00 70 1016.3
20260510113544 61 0 0.0 3.5 0.00 0.00 0.00 70 1016.2
20260510113051 61 22 0.0 0.0 0.00 0.00 0.00 71 1016.2
20260510112544 61 0 0.0 0.0 0.00 0.00 0.00 71 1016.1
20260510112048 61 0 0.0 0.0 0.00 0.00 0.00 71 1016.0
20260510111551 61 0 0.0 0.0 0.00 0.00 0.00 72 1015.9
20260510111044 61 0 0.0 0.0 0.00 0.00 0.00 72 1015.8
20260510110547 61 0 0.0 0.9 0.00 0.00 0.00 73 1015.6
20260510110054 61 0 0.0 0.9 0.00 0.00 0.00 74 1015.7
20260510105545 61 0 0.0 0.0 0.00 0.00 0.00 74 1015.6
20260510105045 60 0 0.0 0.0 0.00 0.00 0.00 75 1015.3
20260510104550 60 0 0.0 0.0 0.00 0.00 0.00 75 1015.1
20260510104046 60 0 0.0 0.0 0.00 0.00 0.00 76 1015.1
20260510103544 60 0 0.0 1.7 0.00 0.00 0.00 76 1015.1
20260510103055 59 0 0.0 1.7 0.00 0.00 0.00 77 1015.2
20260510102544 59 0 0.0 4.3 0.00 0.00 0.00 78 1015.2
20260510102045 58 0 0.0 6.1 0.00 0.00 0.00 80 1015.3
20260510101555 58 0 0.9 6.1 0.00 0.00 0.00 82 1015.3
20260510101045 57 0 0.0 0.0 0.00 0.00 0.00 84 1014.9
20260510100548 57 0 0.0 0.0 0.00 0.00 0.00 83 1014.8
20260510100053 57 0 0.0 0.0 0.00 0.00 0.00 83 1014.8
20260510095547 57 0 0.0 0.0 0.00 0.00 0.00 83 1014.6
20260510095044 57 0 0.0 0.0 0.00 0.00 0.00 82 1014.6
20260510094600 57 0 0.0 0.0 0.00 0.00 0.00 82 1014.5
20260510094045 57 0 0.0 0.0 0.00 0.00 0.00 82 1014.5
20260510093545 57 0 0.0 0.0 0.00 0.00 0.00 82 1014.4
20260510093052 57 0 0.0 0.0 0.00 0.00 0.00 82 1014.6
20260510092545 57 0 0.0 0.0 0.00 0.00 0.00 81 1014.5
20260510092045 57 0 0.0 0.0 0.00 0.00 0.00 81 1014.4
20260510091600 57 0 0.0 0.0 0.00 0.00 0.00 81 1014.5
20260510091044 57 0 0.0 0.0 0.00 0.00 0.00 81 1014.6
20260510090545 57 0 0.0 0.0 0.00 0.00 0.00 81 1014.6
20260510090112 57 0 0.0 0.0 0.00 0.00 0.00 81 1014.6
20260510085550 57 0 0.0 0.0 0.00 0.00 0.00 81 1014.7
20260510085044 57 0 0.0 0.0 0.00 0.00 0.00 80 1014.7
20260510084558 57 0 0.0 0.0 0.00 0.00 0.00 80 1014.7
20260510084044 58 0 0.0 0.0 0.00 0.00 0.00 80 1014.8
20260510083544 58 0 0.0 0.0 0.00 0.00 0.00 80 1014.8
20260510083056 58 0 0.0 0.0 0.00 0.00 0.00 80 1014.7
20260510082548 58 0 0.0 0.0 0.00 0.00 0.00 79 1014.7
20260510082044 58 0 0.0 0.0 0.00 0.00 0.00 79 1014.7
20260510081557 58 0 0.0 0.0 0.00 0.00 0.00 79 1014.5
20260510081044 58 0 0.0 0.0 0.00 0.00 0.00 78 1014.4
20260510080548 58 0 0.0 0.0 0.00 0.00 0.00 77 1014.3
20260510080052 58 0 0.0 0.0 0.00 0.00 0.00 77 1014.3
20260510075544 58 0 0.0 0.0 0.00 0.00 0.00 77 1014.3
20260510075049 58 0 0.0 0.0 0.00 0.00 0.00 77 1014.3
20260510074550 58 0 0.0 0.0 0.00 0.00 0.00 77 1014.3
20260510074044 58 0 0.0 0.0 0.00 0.00 0.00 77 1014.2
20260510073545 58 0 0.0 0.0 0.00 0.00 0.00 77 1014.3
20260510073111 58 0 0.0 0.0 0.00 0.00 0.00 77 1014.2
20260510072544 58 0 0.0 0.0 0.00 0.00 0.00 78 1014.2
20260510072044 58 0 0.0 0.0 0.00 0.00 0.00 78 1014.2
20260510071603 58 0 0.0 0.0 0.00 0.00 0.00 77 1014.0
20260510071044 58 0 0.0 0.0 0.00 0.00 0.00 76 1014.0
20260510070545 58 0 0.0 0.0 0.00 0.00 0.00 76 1013.9
20260510070050 58 0 0.0 0.0 0.00 0.00 0.00 76 1013.8
20260510065546 58 0 0.0 0.0 0.00 0.01 0.00 76 1013.8
20260510065044 59 0 0.0 0.0 0.00 0.01 0.00 75 1013.8
20260510064559 59 0 0.0 0.0 0.00 0.01 0.00 75 1013.8
20260510064044 59 0 0.0 0.0 0.00 0.01 0.00 75 1013.9
20260510063545 59 0 0.0 0.0 0.00 0.01 0.00 74 1013.8
20260510063059 59 0 0.0 0.0 0.00 0.01 0.00 74 1013.9
20260510062544 59 0 0.0 0.0 0.00 0.01 0.00 73 1014.0
20260510062047 59 0 0.0 0.0 0.00 0.01 0.00 73 1014.1
20260510061551 59 0 0.0 0.0 0.00 0.01 0.00 73 1014.1
20260510061048 59 0 0.0 0.0 0.00 0.01 0.00 73 1014.0
20260510060547 60 0 0.0 0.0 0.00 0.01 0.00 72 1013.9
20260510060053 60 0 0.0 0.0 0.00 0.01 0.00 72 1013.9
20260510055545 60 0 0.0 0.0 0.00 0.01 0.00 71 1013.8
20260510055048 60 0 0.0 0.0 0.00 0.01 0.00 71 1013.8
20260510054552 61 0 0.0 0.0 0.00 0.01 0.00 70 1013.9
20260510054044 61 0 0.0 0.0 0.00 0.01 0.00 69 1013.8
20260510053544 61 0 0.0 0.0 0.00 0.01 0.00 68 1013.9
20260510053056 61 0 0.0 0.0 0.00 0.01 0.00 68 1013.9
20260510052545 61 0 0.0 0.0 0.00 0.01 0.00 67 1014.1
20260510052045 61 0 0.0 0.0 0.00 0.01 0.00 68 1014.1
20260510051557 61 0 0.0 0.0 0.00 0.01 0.00 67 1014.2
20260510051105 62 0 0.0 0.0 0.00 0.01 0.00 68 1014.0
20260510050544 62 0 0.0 0.0 0.00 0.01 0.00 67 1013.9
20260510050053 62 0 0.0 0.0 0.00 0.01 0.00 66 1013.8
20260510045545 62 0 0.0 0.0 0.00 0.03 0.01 66 1013.7
20260510045047 63 0 0.0 0.0 0.00 0.03 0.01 66 1013.7
20260510044553 63 0 0.0 0.0 0.00 0.03 0.01 65 1013.6
20260510044046 63 0 0.0 0.0 0.00 0.03 0.01 65 1013.6
20260510043544 64 0 0.0 0.0 0.00 0.03 0.01 63 1013.6
20260510043107 64 0 0.0 0.0 0.00 0.03 0.01 62 1013.6
20260510042545 64 0 0.0 0.0 0.00 0.03 0.01 61 1013.6
20260510042044 64 0 0.0 0.0 0.00 0.03 0.01 61 1013.7
20260510041555 64 0 0.0 0.0 0.00 0.03 0.01 61 1013.7
20260510041047 64 0 0.0 0.0 0.00 0.03 0.01 62 1013.7
20260510040546 64 0 0.0 0.0 0.00 0.03 0.01 63 1013.6
20260510040110 63 0 0.0 0.0 0.00 0.03 0.01 63 1013.6
20260510035544 63 0 0.0 0.0 0.00 0.03 0.01 64 1013.5
20260510035048 63 0 0.0 0.0 0.00 0.03 0.01 66 1013.3
20260510034556 62 0 0.0 0.0 0.00 0.03 0.01 67 1013.2
20260510034045 62 0 0.0 0.0 0.00 0.03 0.01 68 1013.2
20260510033545 62 0 0.0 0.0 0.00 0.03 0.01 68 1013.2
20260510033101 62 0 0.0 0.0 0.00 0.03 0.01 69 1013.3
20260510032548 62 0 0.0 0.0 0.00 0.03 0.01 69 1013.3
20260510032044 62 0 0.0 0.0 0.00 0.03 0.01 69 1013.1
20260510031557 62 0 0.0 0.0 0.00 0.03 0.01 70 1013.1
20260510031044 62 0 0.0 0.0 0.00 0.03 0.01 70 1013.0
20260510030546 62 0 0.0 0.0 0.00 0.03 0.01 71 1013.0
20260510030056 62 0 0.0 0.0 0.00 0.03 0.01 71 1013.0
20260510025544 62 0 0.0 0.0 0.00 0.03 0.01 70 1012.9
20260510025047 62 0 0.0 0.0 0.00 0.03 0.01 69 1012.8
20260510024553 63 0 0.0 0.0 0.00 0.03 0.01 68 1012.8
20260510024047 63 0 0.0 0.0 0.00 0.03 0.01 69 1012.5
20260510023546 63 0 0.0 0.0 0.00 0.03 0.01 68 1012.5
20260510023054 63 0 0.0 0.0 0.00 0.03 0.01 67 1012.5
20260510022545 64 0 0.0 0.0 0.00 0.03 0.01 66 1012.4
20260510022044 64 0 0.0 0.0 0.00 0.03 0.01 65 1012.4
20260510021601 65 0 0.0 0.0 0.00 0.03 0.01 67 1012.2
20260510021044 65 0 0.0 0.0 0.00 0.03 0.01 64 1012.2
20260510020546 65 0 0.0 0.0 0.00 0.03 0.01 63 1012.1
20260510020053 65 0 0.0 0.0 0.00 0.03 0.01 64 1011.9
20260510015545 66 0 0.0 0.0 0.00 0.03 0.01 63 1011.8
20260510015044 66 0 0.0 0.0 0.00 0.03 0.01 63 1011.8
20260510014555 66 0 0.0 0.0 0.00 0.03 0.01 61 1011.6
20260510014046 67 0 0.0 0.0 0.00 0.03 0.01 60 1011.6
20260510013547 67 0 0.0 0.0 0.00 0.03 0.01 59 1011.5
20260510013051 68 0 0.0 0.0 0.00 0.03 0.01 57 1011.5
20260510012545 69 0 0.0 0.0 0.00 0.03 0.01 54 1011.5
20260510012045 69 0 0.0 0.0 0.00 0.03 0.01 53 1011.5
20260510011554 70 0 0.0 0.0 0.00 0.03 0.01 53 1011.4
20260510011044 70 0 0.0 0.0 0.00 0.03 0.01 53 1011.5
20260510010545 71 0 0.0 0.0 0.00 0.03 0.01 51 1011.3
20260510010052 72 0 0.0 0.0 0.00 0.03 0.01 50 1011.3
20260510005545 73 0 0.0 0.0 0.00 0.03 0.01 47 1011.1
20260510005044 73 0 0.0 0.0 0.00 0.03 0.01 44 1011.2
20260510004556 74 0 0.0 0.0 0.00 0.03 0.01 44 1011.1
20260510004046 75 0 0.0 0.0 0.00 0.03 0.01 41 1011.0
20260510003545 76 0 0.0 0.0 0.00 0.03 0.01 40 1011.0
20260510003057 76 0 0.0 0.0 0.00 0.03 0.01 39 1010.9
20260510002549 76 0 0.0 0.0 0.00 0.03 0.01 41 1010.9
20260510002044 77 0 0.0 0.0 0.00 0.03 0.01 38 1010.8
20260510001555 78 0 0.0 0.0 0.00 0.03 0.01 39 1010.9
20260510001045 78 0 0.0 0.0 0.00 0.03 0.01 38 1010.8
20260510000544 79 0 0.0 0.0 0.00 0.03 0.01 42 1010.8
20260510000057 80 0 0.0 0.0 0.00 0.03 0.01 45 1010.8
20260509235545 81 0 0.0 0.0 0.00 0.03 0.01 37 1010.8
20260509235045 82 0 0.0 0.0 0.00 0.03 0.01 36 1010.7
20260509234553 82 0 0.0 0.0 0.00 0.03 0.01 35 1010.6
20260509234047 82 0 0.0 0.0 0.00 0.03 0.01 34 1010.7
20260509233548 82 0 0.0 0.0 0.00 0.03 0.01 33 1010.7
20260509233053 82 0 0.0 0.0 0.00 0.03 0.01 30 1010.7
20260509232545 82 0 0.0 0.0 0.00 0.03 0.01 32 1010.7
20260509232045 82 0 0.0 0.0 0.00 0.03 0.01 28 1010.8
20260509231558 83 0 0.0 0.9 0.00 0.03 0.01 28 1010.8
20260509231044 83 0 0.0 0.9 0.00 0.03 0.01 29 1010.7
20260509230548 83 0 0.0 1.7 0.00 0.03 0.01 27 1010.8
20260509230058 83 0 0.0 1.7 0.00 0.03 0.01 29 1010.7
20260509225544 83 0 0.0 2.6 0.00 0.03 0.01 28 1010.7
20260509225047 83 0 0.0 2.6 0.00 0.03 0.01 27 1010.6
20260509224559 83 0 0.0 0.0 0.00 0.03 0.01 27 1010.5
20260509224044 83 0 0.0 3.5 0.00 0.03 0.01 27 1010.6
20260509223545 83 0 0.0 6.1 0.00 0.03 0.01 25 1010.5
20260509223059 83 0 0.0 6.1 0.00 0.03 0.01 26 1010.5
20260509222546 83 0 0.9 6.1 0.00 0.03 0.01 25 1010.7
20260509222045 83 0 0.0 4.3 0.00 0.03 0.01 28 1010.5
20260509221605 82 0 0.0 4.3 0.00 0.03 0.01 25 1010.4
20260509221045 83 0 0.0 4.3 0.00 0.03 0.01 25 1010.5
20260509220546 83 0 0.0 7.0 0.00 0.03 0.01 28 1010.5
20260509220051 83 0 0.0 7.0 0.00 0.03 0.01 28 1010.5
20260509215545 83 252 0.0 7.0 0.00 0.03 0.01 27 1010.5
20260509215045 82 0 0.9 7.0 0.00 0.03 0.01 27 1010.5
20260509214601 82 0 0.0 3.5 0.00 0.03 0.01 29 1010.5
20260509214046 82 0 0.0 3.5 0.00 0.03 0.01 28 1010.4
20260509213546 82 0 0.0 5.2 0.00 0.03 0.01 26 1010.5
20260509213054 81 257 0.0 5.2 0.00 0.03 0.01 31 1010.4
20260509212544 81 0 1.7 7.0 0.00 0.03 0.01 27 1010.5
20260509212044 82 46 1.7 7.0 0.00 0.03 0.01 28 1010.5
20260509211557 83 285 0.9 7.0 0.00 0.03 0.01 29 1010.5
20260509211045 83 263 0.0 7.0 0.00 0.03 0.01 28 1010.5
20260509210545 83 0 0.9 7.0 0.00 0.03 0.01 28 1010.6
20260509210113 83 0 0.0 5.2 0.00 0.03 0.01 29 1010.5
20260509205544 83 197 1.7 5.2 0.00 0.03 0.01 26 1010.7
20260509205044 83 0 0.0 7.0 0.00 0.03 0.01 30 1010.7
20260509204558 82 0 0.0 7.0 0.00 0.03 0.01 29 1010.8
20260509204045 83 76 0.0 7.0 0.00 0.03 0.01 27 1010.7
20260509203545 83 44 0.9 5.2 0.00 0.03 0.01 28 1010.7
20260509203056 82 0 0.0 4.3 0.00 0.03 0.01 25 1010.8
20260509202546 82 0 0.0 4.3 0.00 0.03 0.01 28 1010.9
20260509202046 82 0 0.0 1.7 0.00 0.03 0.01 25 1010.9
20260509201559 82 0 0.0 7.0 0.00 0.03 0.01 27 1010.9
20260509201045 82 0 0.0 7.0 0.00 0.03 0.01 27 1011.1
20260509200547 82 42 0.9 7.0 0.00 0.03 0.01 26 1011.1
20260509195545 82 0 0.0 7.0 0.00 0.03 0.01 27 1011.3
20260509195047 83 0 0.0 7.0 0.00 0.03 0.01 29 1011.3
20260509194552 82 273 0.0 7.0 0.00 0.03 0.01 30 1011.5
20260509194047 83 0 0.0 4.3 0.00 0.03 0.01 27 1011.4
20260509193546 82 0 0.9 4.3 0.00 0.03 0.01 28 1011.5
20260509193053 82 0 0.0 5.2 0.00 0.03 0.01 30 1011.4
20260509192545 82 302 0.0 5.2 0.00 0.03 0.01 25 1011.5
20260509192046 82 232 0.9 6.1 0.00 0.03 0.01 27 1011.5
20260509191601 81 0 0.9 6.1 0.00 0.03 0.01 33 1011.5
20260509191047 81 263 0.9 6.1 0.00 0.03 0.01 28 1011.4
20260509190544 81 0 0.9 4.3 0.00 0.03 0.01 27 1011.4
20260509190108 81 0 0.0 7.0 0.00 0.03 0.01 34 1011.4
20260509185545 81 0 0.0 10.4 0.00 0.03 0.01 30 1011.4
20260509185046 81 19 1.7 10.4 0.00 0.03 0.01 29 1011.5
20260509184554 81 0 2.6 10.4 0.00 0.03 0.01 33 1011.4
20260509184045 80 0 0.9 7.0 0.00 0.03 0.01 34 1011.4
20260509183545 80 221 0.9 7.0 0.00 0.03 0.01 32 1011.4
20260509183057 79 290 0.0 6.1 0.00 0.03 0.01 33 1011.4
20260509182544 79 0 0.0 6.1 0.00 0.03 0.01 36 1011.3
20260509182045 79 37 0.9 6.1 0.00 0.03 0.01 32 1011.4
20260509181600 80 0 0.0 8.7 0.00 0.03 0.01 30 1011.4
20260509181045 80 54 1.7 8.7 0.00 0.03 0.01 31 1011.4
20260509180545 80 203 0.0 8.7 0.00 0.03 0.01 29 1011.4